Location: Oshawa
(43.9000°N, 78.8670°W)
Time: 02:35:03
(UTC-04:00)

SPOT 5 - Visible Passes

Search period start: 01 July 2015 00:00
Search period end: 11 July 2015 00:00
Orbit: 821 x 823 km, 98.5° (Epoch: 30 June)

Date Brightness Start Highest point End Pass type
(mag) Time Alt. Az. Time Alt. Az. Time Alt. Az.
01 Jul 5.1 23:00:13 10° SW 23:04:30 23° W 23:08:41 10° NW visible
02 Jul 4.5 22:39:18 10° SSW 22:44:11 35° W 22:49:02 10° NNW visible
03 Jul 3.9 22:18:43 10° S 22:23:56 52° W 22:29:11 10° NNW visible
04 Jul 3.3 21:58:24 10° S 22:03:46 78° WSW 22:09:10 10° NNW visible
05 Jul 3.2 21:38:20 10° SSE 21:43:39 72° ENE 21:49:01 10° N visible
05 Jul 5.5 23:21:13 10° SW 23:24:28 16° W 23:27:29 10° NW visible
06 Jul 5.1 22:59:46 10° SW 23:04:04 23° W 23:08:15 10° NW visible
07 Jul 4.5 22:38:51 10° SSW 22:43:44 35° W 22:48:36 10° NNW visible
08 Jul 3.9 22:18:17 10° S 22:23:29 52° W 22:28:44 10° NNW visible
09 Jul 3.3 21:57:57 10° S 22:03:19 78° WSW 22:08:43 10° NNW visible
10 Jul 3.2 21:37:53 10° SSE 21:43:12 72° ENE 21:48:35 10° N visible
10 Jul 5.5 23:20:46 10° SW 23:24:01 16° W 23:27:02 10° NW visible
